This is the latest recevied weather packets stored in our database for station/object KD9CCP. If no packets are shown the sender has not sent any weather packets the latest 1 day(s).
| Time | Temp. | Humidity | Pressure | Rain* | Wind** | Luminosity | Snow |
|---|---|---|---|---|---|---|---|
| 1778033544 | 0.56° C | 74% | 1012.2 hPa | 0 mm | 0 m/s | 0 W/m² | - |
| 1778033240 | 0.56° C | 73% | 1012.2 hPa | 0 mm | 0 m/s | 0 W/m² | - |
| 1778032938 | 1.11° C | 73% | 1012.2 hPa | 0 mm | 0 m/s | 0 W/m² | - |
| 1778032635 | 1.11° C | 72% | 1012 hPa | 0 mm | 0 m/s | 0 W/m² | - |
| 1778032333 | 1.11° C | 72% | 1012 hPa | 0 mm | 0 m/s | 0 W/m² | - |
| 1778032030 | 1.11° C | 71% | 1012 hPa | 0 mm | 0 m/s | 0 W/m² | - |
| 1778031726 | 1.67° C | 70% | 1011.7 hPa | 0 mm | 0 m/s | 0 W/m² | - |
| 1778031424 | 1.67° C | 70% | 1011.6 hPa | 0 mm | 0 m/s | 0 W/m² | - |
| 1778031121 | 1.67° C | 69% | 1011.7 hPa | 0 mm | 0 m/s | 0 W/m² | - |
| 1778030817 | 2.22° C | 68% | 1011.5 hPa | 0 mm | 0.45 m/s, 349° | 0 W/m² | - |
| 1778030513 | 2.22° C | 68% | 1011.6 hPa | 0 mm | 0.45 m/s, 349° | 0 W/m² | - |
| 1778030211 | 2.22° C | 66% | 1011.3 hPa | 0 mm | 0 m/s | 0 W/m² | - |
| 1778029907 | 2.78° C | 66% | 1011.3 hPa | 0 mm | 0.45 m/s, 349° | 0 W/m² | - |
| 1778029606 | 2.78° C | 66% | 1011.5 hPa | 0 mm | 0.45 m/s, 349° | 0 W/m² | - |
| 1778029303 | 2.78° C | 65% | 1011.4 hPa | 0 mm | 0.45 m/s, 350° | 0 W/m² | - |
| 1778028999 | 3.33° C | 64% | 1011.1 hPa | 0 mm | 0.45 m/s, 351° | 1 W/m² | - |
| 1778028696 | 3.33° C | 64% | 1011.1 hPa | 0 mm | 0.45 m/s, 350° | 2 W/m² | - |
| 1778028392 | 3.33° C | 62% | 1011.1 hPa | 0 mm | 0.45 m/s, 350° | 3 W/m² | - |
| 1778028090 | 3.33° C | 64% | 1011.1 hPa | 0 mm | 0 m/s | 4 W/m² | - |
| 1778027786 | 3.89° C | 62% | 1010.9 hPa | 0 mm | 0.45 m/s, 354° | 4 W/m² | - |
| 1778027482 | 3.89° C | 61% | 1011.1 hPa | 0 mm | 0.45 m/s, 354° | 5 W/m² | - |
| 1778027179 | 3.89° C | 61% | 1011.2 hPa | 0 mm | 0.45 m/s, 354° | 6 W/m² | - |
| 1778026874 | 3.89° C | 60% | 1011.1 hPa | 0 mm | 0 m/s | 7 W/m² | - |
| 1778026571 | 3.89° C | 60% | 1010.9 hPa | 0 mm | 0.45 m/s, 349° | 9 W/m² | - |
| 1778026268 | 4.44° C | 59% | 1010.7 hPa | 0 mm | 0.45 m/s, 350° | 10 W/m² | - |
* Rain latest hour (hover to see other rain measurements)
** Current wind speed in m/s (hover to see current wind gust speed)